{"data":{"norad_id":61005,"intl_designator":"2024-158R","name":"STARLINK-32284","alt_names":[],"object_type":"PAYLOAD","status":"ACTIVE","operator":null,"country":"US","launch_date":"2024-09-05","launch_site_code":"AFETR","launch_vehicle":null,"mission":null,"orbit_class":"UNKNOWN","rcs_meters":null,"size_class":null,"mass_kg":null,"dimensions":null,"purposes":["comms"],"wikipedia_slug":null,"has_3d_model":false,"image_url":null,"decayed_at":null,"tle_current":{"epoch":"2026-05-25T04:42:58.919328Z","epoch_age_seconds":48345,"freshness":"FRESH","line1":"1 61005U 24158R   26145.19651527  .00000511  00000+0  29383-4 0  9991","line2":"2 61005  53.1602  70.2469 0001216  81.1742 278.9396 15.30196800 97296","mean_motion":15.301968,"eccentricity":0.0001216,"inclination_deg":53.1602,"raan_deg":70.2469,"arg_perigee_deg":81.1742,"mean_anomaly_deg":278.9396,"bstar":2.9383e-5,"rev_number":9729,"period_min":94.105542502768,"perigee_km":474.39125528569,"apogee_km":476.05799283266,"semimajor_km":6853.3616240592,"source":"CELESTRAK","updated_at":"2026-05-25T13:38:19.350005Z"}}}